Weatherford, Texas, United States (76085)
Lat: 32.76N, Lon: 97.8W
Wx Zone: TXZ117
Local Info
Past Weather Observations for Saturday, February 6, 2016

NOTE: This archive is for the closest National Weather Service station to Weatherford. Information may differ from the station used for current weather conditions.

Click here for Long-term Archive

Time Weather Temperature Dewpoint Humidity Pressure Winds Precip Visibility
23:53
Clear
34°F / 1°C 30°F / -1°C 87% 30.3 in
(1026 mb)
SE 9.2 mph
(SE 15 kph)
- 9SM
22:53
Clear
36°F / 2°C 30°F / -1°C 81% 30.33 in
(1027 mb)
SSE 10.4 mph
(SSE 17 kph)
- 10SM
21:53
Clear
39°F / 4°C 30°F / -1°C 70% 30.33 in
(1027 mb)
SSE 9.2 mph
(SSE 15 kph)
- 10SM
20:53
Clear
39°F / 4°C 30°F / -1°C 70% 30.33 in
(1027 mb)
SE 10.4 mph
(SE 17 kph)
- 10SM
19:53
Clear
45°F / 7°C 28°F / -2°C 53% 30.33 in
(1027 mb)
S 5.8 mph
(S 9 kph)
- 10SM
18:53
Clear
45°F / 7°C 28°F / -2°C 53% 30.3 in
(1026 mb)
SSE 4.6 mph
(SSE 7 kph)
- 10SM
17:53
Clear
52°F / 11°C 28°F / -2°C 41% 30.33 in
(1027 mb)
Calm - 10SM
16:53
Partly Cloudy
54°F / 12°C 28°F / -2°C 38% 30.33 in
(1027 mb)
NW 5.8 mph
(NW 9 kph)
- 10SM
15:53
Clear
54°F / 12°C 28°F / -2°C 38% 30.33 in
(1027 mb)
W 4.6 mph
(W 7 kph)
- 10SM
14:53
Clear
55°F / 13°C 30°F / -1°C 38% 30.33 in
(1027 mb)
NW 10.4 mph
(NW 17 kph)
- 10SM
13:53
Mostly Cloudy
54°F / 12°C 32°F / 0°C 44% 30.36 in
(1028 mb)
NW 10.4 mph
(NW 17 kph)
- 10SM
12:53
Mostly Cloudy
50°F / 10°C 32°F / 0°C 50% 30.39 in
(1029 mb)
NNW 13.8 mph
(NNW 22 kph)
- 10SM
11:53
Partly Cloudy
52°F / 11°C 34°F / 1°C 50% 30.42 in
(1030 mb)
N 16.1 mph
(N 26 kph)
- 10SM
10:53
Clear
48°F / 9°C 34°F / 1°C 58% 30.42 in
(1030 mb)
N 15 mph
(N 24 kph)
- 10SM
09:53
Clear
45°F / 7°C 34°F / 1°C 66% 30.39 in
(1029 mb)
NNW 18.4 mph
(NNW 30 kph)
- 10SM
08:53
Clear
41°F / 5°C 32°F / 0°C 70% 30.33 in
(1027 mb)
NNW 19.6 mph
(NNW 32 kph)
- 10SM
07:53
Clear
39°F / 4°C 34°F / 1°C 81% 30.3 in
(1026 mb)
NW 19.6 mph
(NW 32 kph)
- 10SM
06:53
Clear
37°F / 3°C 32°F / 0°C 81% 30.27 in
(1025 mb)
NW 13.8 mph
(NW 22 kph)
- 10SM
05:53
Clear
36°F / 2°C 28°F / -2°C 75% 30.24 in
(1024 mb)
NW 16.1 mph
(NW 26 kph)
- 10SM
04:53
Clear
36°F / 2°C 27°F / -3°C 70% 30.21 in
(1023 mb)
W 9.2 mph
(W 15 kph)
- 10SM
03:53
Clear
36°F / 2°C 25°F / -4°C 65% 30.21 in
(1023 mb)
W 5.8 mph
(W 9 kph)
- 10SM
02:53
Clear
36°F / 2°C 25°F / -4°C 65% 30.21 in
(1023 mb)
WNW 5.8 mph
(WNW 9 kph)
- 10SM
01:53
Clear
37°F / 3°C 25°F / -4°C 60% 30.21 in
(1023 mb)
W 6.9 mph
(W 11 kph)
- 10SM
00:53
Clear
41°F / 5°C 27°F / -3°C 57% 30.21 in
(1023 mb)
W 4.6 mph
(W 7 kph)
- 10SM
Time Weather Temperature Dewpoint Humidity Pressure Winds Precip Visibility


Weather for websites

WeatherForYou.com, LLC is not responsible for any damages or problems caused by this service. Current weather conditions are obtained from the closest station including government and personal stations which may have varying degrees of accuracy. Weather forecasts are derived from the NOAA NDFD. Like all things, this site belongs to Jesus Christ... He just trusts us to maintain it. If you have any questions or comments email webmaster@weatherforyou.com

Copyright © 2016, WeatherForYou.com LLC. All rights reserved.